Weather History for Ladysmith, WI

Change the Weather History Date:

Sunday, February 24, 2013

  Actual Average (KRPD) Record (KRPD)
Temperature  
Mean Temperature 26 °F -  
Max Temperature 32 °F 28 °F 48 °F (1998)
Min Temperature 17 °F 12 °F -7 °F (1997)
Degree Days  
Heating Degree Days 40    
Moisture  
Dew Point 23 °F    
Average Humidity 81    
Maximum Humidity 93    
Minimum Humidity 69    
Precipitation  
Precipitation 0.00 in - - ()
Sea Level Pressure  
Sea Level Pressure 30.02 in    
Wind  
Wind Speed 2 mph (SSW)    
Max Wind Speed 6 mph    
Max Gust Speed -    
Visibility 9 miles    
Events      
Averages and records for this station are not official NWS values.
T = Trace of Precipitation, MM = Missing Value Source: NWS Daily Summary

Daily Weather History Graph

Daily Weather History Graph

Search for Another Location

Airport:

Trip Planner

Search our weather history database for the weather conditions in past years. The results will help you decide how hot, cold, wet, or windy it might be!

Date:

Astronomy

Feb. 24, 2013 Rise Set
Actual Time 6:50 AM CST 5:44 PM CST
Civil Twilight 6:20 AM CST 6:14 PM CST
Nautical Twilight 5:46 AM CST 6:48 PM CST
Astronomical Twilight 5:12 AM CST 7:23 PM CST
Moon 4:55 PM CST (2/24) 5:49 AM CST (2/24)
Length of Visible Light 11h 53m
Length of Day
10h 53m
Waxing Gibbous, 99% of the Moon is Illuminated
Feb 24
Waxing Gibbous
Feb 25
Full
Mar 4
Last Quarter
Mar 11
New
Mar 19
First Quarter

Hourly Weather History & Observations

Time (CST) Temp. Windchill Dew Point Humidity Pressure Visibility Wind Dir Wind Speed Gust Speed Precip Events Conditions
12:15 AM 28.4 °F 23.3 °F 23.0 °F 80% 29.90 in 10.0 mi West 4.6 mph - N/A   Overcast
12:35 AM 28.4 °F 22.2 °F 23.0 °F 80% 29.90 in 10.0 mi WSW 5.8 mph - N/A   Overcast
12:55 AM 26.6 °F 20.0 °F 23.0 °F 86% 29.91 in 10.0 mi WSW 5.8 mph - N/A   Overcast
1:15 AM 26.6 °F 21.2 °F 23.0 °F 86% 29.91 in 7.0 mi WSW 4.6 mph - N/A   Overcast
1:35 AM 26.6 °F - 23.0 °F 86% 29.92 in 5.0 mi Calm Calm - N/A   Overcast
1:55 AM 26.6 °F 22.6 °F 23.0 °F 86% 29.92 in 7.0 mi West 3.5 mph - N/A   Overcast
2:15 AM 26.6 °F - 23.0 °F 86% 29.92 in 7.0 mi Calm Calm - N/A   Overcast
2:35 AM 26.6 °F 21.2 °F 23.0 °F 86% 29.93 in 7.0 mi West 4.6 mph - N/A   Overcast
2:55 AM 26.6 °F 22.6 °F 23.0 °F 86% 29.93 in 7.0 mi West 3.5 mph - N/A   Overcast
3:15 AM 26.6 °F - 23.0 °F 86% 29.93 in 7.0 mi Calm Calm - N/A   Overcast
3:35 AM 26.6 °F - 23.0 °F 86% 29.93 in 7.0 mi Calm Calm - N/A   Overcast
3:55 AM 26.6 °F - 23.0 °F 86% 29.93 in 7.0 mi Calm Calm - N/A   Overcast
4:15 AM 26.6 °F 22.6 °F 23.0 °F 86% 29.94 in 7.0 mi West 3.5 mph - N/A   Overcast
4:35 AM 26.6 °F - 23.0 °F 86% 29.95 in 7.0 mi Calm Calm - N/A   Overcast
4:55 AM 26.6 °F - 23.0 °F 86% 29.95 in 7.0 mi Calm Calm - N/A   Overcast
5:15 AM 26.6 °F - 23.0 °F 86% 29.96 in 7.0 mi Calm Calm - N/A   Overcast
5:35 AM 26.6 °F - 23.0 °F 86% 29.97 in 7.0 mi Calm Calm - N/A   Overcast
5:55 AM 26.6 °F - 23.0 °F 86% 29.98 in 7.0 mi Calm Calm - N/A   Overcast
6:15 AM 26.6 °F - 23.0 °F 86% 29.98 in 7.0 mi Calm Calm - N/A   Overcast
6:35 AM 26.6 °F - 23.0 °F 86% 29.99 in 7.0 mi Calm Calm - N/A   Overcast
6:55 AM 26.6 °F - 23.0 °F 86% 29.99 in 7.0 mi Calm Calm - N/A   Overcast
7:15 AM 26.6 °F - 23.0 °F 86% 29.99 in 5.0 mi Calm Calm - N/A   Overcast
7:35 AM 26.6 °F - 23.0 °F 86% 30.00 in 7.0 mi Calm Calm - N/A   Overcast
7:55 AM 26.6 °F 21.2 °F 23.0 °F 86% 30.01 in 5.0 mi SW 4.6 mph - N/A   Overcast
8:15 AM 26.6 °F 22.6 °F 23.0 °F 86% 30.02 in 7.0 mi WSW 3.5 mph - N/A   Overcast
8:35 AM 28.4 °F - 23.0 °F 80% 30.02 in 7.0 mi Calm Calm - N/A   Overcast
8:55 AM 28.4 °F - 23.0 °F 80% 30.02 in 7.0 mi Calm Calm - N/A   Overcast
9:15 AM 28.4 °F - 24.8 °F 86% 30.03 in 7.0 mi Calm Calm - N/A   Overcast
9:35 AM 28.4 °F - 24.8 °F 86% 30.03 in 10.0 mi Calm Calm - N/A   Overcast
9:55 AM 28.4 °F - 23.0 °F 80% 30.04 in 10.0 mi Calm Calm - N/A   Overcast
10:15 AM 28.4 °F - 24.8 °F 86% 30.04 in 10.0 mi Calm Calm - N/A   Overcast
10:35 AM 28.4 °F - 23.0 °F 80% 30.04 in 10.0 mi Calm Calm - N/A   Overcast
10:55 AM 30.2 °F - 23.0 °F 75% 30.05 in 10.0 mi Calm Calm - N/A   Overcast
11:15 AM 30.2 °F - 24.8 °F 80% 30.05 in 10.0 mi Calm Calm - N/A   Overcast
11:35 AM 30.2 °F - 24.8 °F 80% 30.05 in 10.0 mi Calm Calm - N/A   Overcast
11:55 AM 32.0 °F - 24.8 °F 75% 30.05 in 10.0 mi Calm Calm - N/A   Overcast
12:15 PM 32.0 °F - 26.6 °F 80% 30.05 in 10.0 mi Calm Calm - N/A   Overcast
12:35 PM 32.0 °F - 24.8 °F 75% 30.05 in 10.0 mi Calm Calm - N/A   Overcast
12:55 PM 32.0 °F - 26.6 °F 80% 30.05 in 10.0 mi Calm Calm - N/A   Overcast
1:15 PM 32.0 °F - 24.8 °F 75% 30.05 in 10.0 mi Calm Calm - N/A   Overcast
1:35 PM 32.0 °F - 24.8 °F 75% 30.05 in 10.0 mi Calm Calm - N/A   Overcast
2:15 PM 32.0 °F 26.4 °F 24.8 °F 75% 30.06 in 10.0 mi South 5.8 mph - N/A   Overcast
2:35 PM 32.0 °F 26.4 °F 26.6 °F 80% 30.05 in 10.0 mi SW 5.8 mph - N/A   Overcast
2:55 PM 32.0 °F 27.5 °F 24.8 °F 75% 30.05 in 10.0 mi SW 4.6 mph - N/A   Overcast
3:15 PM 32.0 °F 28.7 °F 24.8 °F 75% 30.05 in 10.0 mi SW 3.5 mph - N/A   Overcast
3:35 PM 32.0 °F - 23.0 °F 69% 30.05 in 10.0 mi Calm Calm - N/A   Overcast
3:55 PM 32.0 °F - 24.8 °F 75% 30.05 in 10.0 mi Calm Calm - N/A   Overcast
4:15 PM 32.0 °F - 24.8 °F 75% 30.05 in 10.0 mi Calm Calm - N/A   Overcast
4:35 PM 32.0 °F - 24.8 °F 75% 30.05 in 10.0 mi Calm Calm - N/A   Overcast
4:55 PM 32.0 °F - 24.8 °F 75% 30.05 in 10.0 mi Calm Calm - N/A   Overcast
5:15 PM 32.0 °F 28.7 °F 24.8 °F 75% 30.05 in 10.0 mi SE 3.5 mph - N/A   Overcast
5:35 PM 32.0 °F - 24.8 °F 75% 30.05 in 10.0 mi Calm Calm - N/A   Overcast
5:55 PM 32.0 °F - 24.8 °F 75% 30.05 in 10.0 mi Calm Calm - N/A   Overcast
6:15 PM 32.0 °F 27.5 °F 24.8 °F 75% 30.06 in 10.0 mi SSE 4.6 mph - N/A   Overcast
6:35 PM 32.0 °F 28.7 °F 24.8 °F 75% 30.06 in 10.0 mi SSE 3.5 mph - N/A   Overcast
6:55 PM 32.0 °F 28.7 °F 24.8 °F 75% 30.06 in 10.0 mi SE 3.5 mph - N/A   Overcast
7:15 PM 32.0 °F - 23.0 °F 69% 30.06 in 10.0 mi Calm Calm - N/A   Overcast
7:35 PM 32.0 °F 28.7 °F 23.0 °F 69% 30.07 in 10.0 mi SSE 3.5 mph - N/A   Overcast
7:55 PM 32.0 °F 28.7 °F 23.0 °F 69% 30.07 in 10.0 mi SSE 3.5 mph - N/A   Overcast
8:15 PM 30.2 °F 24.3 °F 24.8 °F 80% 30.08 in 10.0 mi South 5.8 mph - N/A   Overcast
8:35 PM 30.2 °F 25.4 °F 24.8 °F 80% 30.08 in 10.0 mi South 4.6 mph - N/A   Overcast
9:15 PM 30.2 °F 26.7 °F 23.0 °F 75% 30.07 in 10.0 mi SSE 3.5 mph - N/A   Mostly Cloudy
9:35 PM 28.4 °F - 23.0 °F 80% 30.07 in 10.0 mi Calm Calm - N/A   Scattered Clouds
9:55 PM 23.0 °F 18.4 °F 19.4 °F 86% 30.08 in 10.0 mi SSE 3.5 mph - N/A   Clear
10:15 PM 23.0 °F 18.4 °F 21.2 °F 93% 30.08 in 10.0 mi SSE 3.5 mph - N/A   Clear
10:35 PM 23.0 °F - 21.2 °F 93% 30.08 in 10.0 mi Calm Calm - N/A   Mostly Cloudy
10:55 PM 23.0 °F - 19.4 °F 86% 30.08 in 10.0 mi Calm Calm - N/A   Overcast
11:15 PM 21.2 °F - 19.4 °F 93% 30.09 in 10.0 mi Calm Calm - N/A   Scattered Clouds
11:35 PM 19.4 °F - 17.6 °F 93% 30.09 in 7.0 mi Calm Calm - N/A   Clear
11:55 PM 17.6 °F - 15.8 °F 93% 30.09 in 5.0 mi Calm Calm - N/A   Scattered Clouds